Weather History for Pecos, TX

Change the Weather History Date:

Friday, February 15, 2013

  Actual Average Record
Temperature  
Mean Temperature 44 °F -  
Max Temperature 50 °F 68 °F 88 °F (1967)
Min Temperature 38 °F 34 °F 16 °F (1948)
Degree Days  
Heating Degree Days 21    
Moisture  
Dew Point 28 °F    
Average Humidity 59    
Maximum Humidity 73    
Minimum Humidity 29    
Precipitation  
Precipitation 0.00 in - - ()
Sea Level Pressure  
Sea Level Pressure 30.29 in    
Wind  
Wind Speed 11 mph (North)    
Max Wind Speed 17 mph    
Max Gust Speed 18 mph    
Visibility 10 miles    
Events      
Averages and records for this station are not official NWS values.
T = Trace of Precipitation, MM = Missing Value Source: NWS Daily Summary

Daily Weather History Graph

Daily Weather History Graph

Search for Another Location

Airport:

Trip Planner

Search our weather history database for the weather conditions in past years. The results will help you decide how hot, cold, wet, or windy it might be!

Date:

Astronomy

Feb. 15, 2013 Rise Set
Actual Time 7:35 AM CST 6:41 PM CST
Civil Twilight 7:10 AM CST 7:06 PM CST
Nautical Twilight 6:41 AM CST 7:34 PM CST
Astronomical Twilight 6:13 AM CST 8:03 PM CST
Moon 10:37 AM CST (2/15) No Moon Set
Length of Visible Light 11h 55m
Length of Day
11h 06m
Waxing Crescent, 30% of the Moon is Illuminated
Feb 15
Waxing Crescent
Feb 17
First Quarter
Feb 25
Full
Mar 4
Last Quarter
Mar 11
New

Hourly Weather History & Observations

Time (CST) Temp. Windchill Dew Point Humidity Pressure Visibility Wind Dir Wind Speed Gust Speed Precip Events Conditions
12:15 AM 46.8 °F - 16.0 °F 29% 30.09 in 10.0 mi North 17.3 mph - N/A   Clear
12:35 AM 45.9 °F 39.7 °F 17.2 °F 32% 30.10 in 10.0 mi North 13.8 mph - N/A   Clear
12:55 AM 45.5 °F 40.3 °F 20.1 °F 36% 30.12 in 10.0 mi NNE 10.4 mph - N/A   Clear
1:15 AM 44.6 °F 40.2 °F 22.8 °F 42% 30.13 in 10.0 mi NNE 8.1 mph - N/A   Clear
1:35 AM 44.6 °F 39.7 °F 25.7 °F 48% 30.15 in 10.0 mi NNE 9.2 mph - N/A   Clear
1:55 AM 44.4 °F 39.0 °F 28.0 °F 53% 30.16 in 10.0 mi NNE 10.4 mph - N/A   Clear
2:15 AM 43.9 °F 37.9 °F 29.8 °F 58% 30.18 in 10.0 mi North 11.5 mph 16.1 mph N/A   Clear
2:35 AM 43.7 °F 38.1 °F 30.9 °F 61% 30.19 in 10.0 mi NNE 10.4 mph - N/A   Clear
2:55 AM 43.0 °F 37.7 °F 30.7 °F 62% 30.21 in 10.0 mi North 9.2 mph 16.1 mph N/A   Clear
3:15 AM 42.4 °F 38.1 °F 31.1 °F 64% 30.23 in 10.0 mi North 6.9 mph - N/A   Clear
3:35 AM 40.8 °F 35.6 °F 30.0 °F 65% 30.25 in 10.0 mi NW 8.1 mph - N/A   Clear
3:55 AM 39.6 °F 33.5 °F 29.8 °F 68% 30.27 in 10.0 mi NW 9.2 mph - N/A   Clear
4:15 AM 39.2 °F 33.0 °F 29.3 °F 68% 30.28 in 10.0 mi NW 9.2 mph - N/A   Clear
4:35 AM 39.2 °F 33.0 °F 30.0 °F 70% 30.29 in 10.0 mi NNW 9.2 mph - N/A   Clear
4:55 AM 38.8 °F 32.6 °F 30.4 °F 72% 30.30 in 10.0 mi NNW 9.2 mph - N/A   Clear
5:15 AM 38.8 °F 32.1 °F 30.7 °F 73% 30.31 in 10.0 mi NNW 10.4 mph - N/A   Scattered Clouds
5:35 AM 40.1 °F 34.1 °F 31.5 °F 71% 30.32 in 10.0 mi NNW 9.2 mph - N/A   Mostly Cloudy
5:55 AM 40.5 °F 33.6 °F 32.0 °F 72% 30.32 in 10.0 mi North 11.5 mph - N/A   Overcast
6:15 AM 41.0 °F 33.5 °F 32.0 °F 70% 30.33 in 10.0 mi North 13.8 mph - N/A   Overcast
6:35 AM 40.6 °F 33.0 °F 31.6 °F 70% 30.34 in 10.0 mi North 13.8 mph 18.4 mph N/A   Overcast
6:55 AM 40.3 °F 33.4 °F 31.1 °F 70% 30.36 in 10.0 mi North 11.5 mph - N/A   Overcast
7:15 AM 39.9 °F 31.4 °F 30.2 °F 68% 30.37 in 10.0 mi North 16.1 mph - N/A   Overcast
7:35 AM 39.6 °F 31.7 °F 29.8 °F 68% 30.37 in 10.0 mi North 13.8 mph - N/A   Overcast
7:55 AM 39.4 °F 31.8 °F 30.0 °F 69% 30.38 in 10.0 mi North 12.7 mph - N/A   Overcast
8:15 AM 39.2 °F 31.6 °F 29.7 °F 69% 30.39 in 10.0 mi North 12.7 mph - N/A   Overcast
8:35 AM 38.5 °F 30.7 °F 29.3 °F 70% 30.40 in 10.0 mi NNW 12.7 mph - N/A   Scattered Clouds
8:55 AM 39.0 °F 31.8 °F 28.9 °F 67% 30.40 in 10.0 mi North 11.5 mph - N/A   Clear
9:15 AM 39.2 °F 32.0 °F 28.4 °F 65% 30.41 in 10.0 mi North 11.5 mph 16.1 mph N/A   Clear
10:15 AM 40.1 °F 34.1 °F 27.7 °F 61% 30.42 in 10.0 mi North 9.2 mph - N/A   Overcast
11:15 AM 41.9 °F 37.5 °F 27.5 °F 57% 30.42 in 10.0 mi NNE 6.9 mph - N/A   Overcast
11:35 AM 42.3 °F 36.8 °F 27.5 °F 56% 30.41 in 10.0 mi NNE 9.2 mph - N/A   Overcast
12:35 PM 44.1 °F 42.5 °F 27.5 °F 52% 30.38 in 10.0 mi NE 3.5 mph - N/A   Overcast
1:15 PM 45.5 °F - 27.0 °F 48% 30.36 in 10.0 mi Calm Calm - N/A   Overcast
2:35 PM 47.8 °F - 26.8 °F 44% 30.32 in 10.0 mi ENE 6.9 mph - N/A   Overcast
3:15 PM 50.2 °F - 26.6 °F 40% 30.31 in 10.0 mi NNW 8.1 mph - N/A   Scattered Clouds
3:55 PM 48.6 °F - 26.2 °F 42% 30.31 in 10.0 mi Calm Calm - N/A   Scattered Clouds
6:15 PM 48.2 °F - 26.2 °F 42% 30.32 in 10.0 mi Calm Calm - N/A   Clear